Regional Weather Roundup
Issued by NWS

Home | Current Version | Previous Version | Text Only | Print | Product List | Glossary Off
Versions: 1 2 3 4 5 6 7 8 9 10 11 12 13 14 15 16 17 18 19 20 21 22 23 24 25 26 27 28 29 30 31 32 33 34 35 36 37 38 39 40 41 42 43 44 45 46 47 48 49 50

111
ASUS43 KLMK 201410
RWRKY
KENTUCKY REGIONAL WEATHER ROUNDUP
NATIONAL WEATHER SERVICE LOUISVILLE KY
900 AM EST MON NOV 20 2017

NOTE "FAIR" INDICATES FEW OR NO CLOUDS BELOW 12,000 FEET
WITH NO SIGNIFICANT WEATHER AND/OR OBSTRUCTIONS TO VISIBILITY.

KYZ001>023-026-027-061>063-070>075-201500-
WESTERN AND SOUTH CENTRAL KENTUCKY

CITY           SKY/WX    TMP DP  RH WIND       PRES   REMARKS
PADUCAH        CLOUDY    34  23  64 CALM      30.24R
HENDERSON      CLOUDY    34  24  67 S8        30.25R WCI  27
OWENSBORO      CLOUDY    31  26  82 S9        30.26S WCI  23
HOPKINSVILLE   CLOUDY    31  24  75 SE7       30.26S WCI  24
BOWLING GREEN  SUNNY     31  27  85 CALM      30.29S
GLASGOW        CLOUDY    28  28 100 CALM      30.28S
$$

KYZ024-025-028>034-038-045-046-053-201500-
NORTH CENTRAL KENTUCKY

CITY           SKY/WX    TMP DP  RH WIND       PRES   REMARKS
LOUISVILLE/SDF CLOUDY    32  25  75 SE6       30.26R WCI  26
LOUISVILLE/LOU CLOUDY    31  25  78 S8        30.26S WCI  23
FORT KNOX      SUNNY     30  23  75 S5        30.23S WCI  25
$$

KYZ035>037-039>044-047>052-055>060-089>105-201500-
NORTHEAST KENTUCKY

CITY           SKY/WX    TMP DP  RH WIND       PRES   REMARKS
LEXINGTON      CLOUDY    31  25  78 S6        30.25S WCI  25
COVINGTON      PTSUNNY   29  26  89 S7        30.22S WCI  22
FRANKFORT      CLOUDY    31  23  72 S5        30.25R WCI  26
$$

KYZ054-064>069-076>088-106>120-201500-
SOUTHEAST KENTUCKY

CITY           SKY/WX    TMP DP  RH WIND       PRES   REMARKS
JACKSON        SUNNY     31  27  85 VRB3      30.25S
LONDON         SUNNY     28  26  92 S3        30.27R
SOMERSET       CLOUDY    28  28 100 CALM      30.30R
MIDDLESBORO    SUNNY     28  27  99 CALM      30.30R
MONTICELLO     SUNNY     33  30  88 VRB7      30.30R WCI  27
$$





USA.gov is the U.S. government's official web portal to all federal, state and local government web resources and services.